Temperature
29 29 29 29 29 29 29 29 29 29 29 29 29 28 26 25 24 23 22 21 21 20 20 19 19 19 18 18 18 18 18 17 17 17 17 17 17 17 17 16 16 16 16 15
27 28 28 28 29 28 28 29 29 29 29 29 27 26 25 24 23 22 22 21 20 20 19 19 19 19 18 18 18 18 18 17 17 17 17 16 16 16 16 16 16 15 15 15
27 28 27 27 28 28 28 29 29 28 29 28 27 25 24 23 23 22 21 21 20 19 19 19 18 18 18 18 18 18 17 17 17 16 16 16 16 16 16 15 15 15 15 15
27 26 25 28 28 28 28 28 28 28 27 26 25 24 23 22 22 21 21 20 19 19 19 18 18 18 18 18 17 17 17 17 16 16 16 16 16 16 15 15 15 15 15 15
26 26 26 27 27 27 26 27 27 26 26 25 24 23 23 21 21 20 20 19 19 18 18 18 18 18 18 17 17 17 17 16 16 16 15 15 15 15 15 15 15 15 15 15
25 25 25 27 26 25 26 25 26 25 25 24 23 25 24 21 20 19 19 18 18 18 18 17 17 17 17 17 17 16 16 16 16 15 15 15 15 15 15 15 15 15 14 14
24 24 26 25 24 24 25 25 24 23 23 23 23 23 21 19 19 18 18 17 17 17 17 17 17 17 17 17 16 16 16 16 15 15 15 15 15 15 15 15 15 14 14 14
24 24 24 23 23 24 23 22 22 22 22 21 21 20 19 19 18 18 17 17 17 17 17 17 16 16 16 16 16 16 16 15 15 15 15 15 15 15 15 15 14 14 14 14
23 23 21 21 22 21 20 20 20 20 20 20 19 19 18 18 17 17 17 17 16 16 16 16 16 16 16 16 16 15 15 15 15 15 15 14 14 14 14 14 14 14 14 14
21 22 21 20 20 19 19 19 19 19 19 19 19 18 18 17 17 16 16 16 16 16 16 16 15 15 15 15 15 15 14 14 14 14 14 14 14 14 14 14 14 14 14 14
20 21 20 19 19 18 18 18 18 18 18 18 17 17 17 16 16 16 15 15 16 16 15 15 15 15 15 14 14 14 14 14 14 14 14 13 13 13 13 13 14 13 13 13
20 20 19 19 18 18 17 17 17 17 17 17 17 16 16 15 15 15 15 15 15 15 15 15 15 14 14 14 14 14 14 13 14 14 14 13 13 13 13 13 13 13 13 13
18 18 18 17 17 17 17 17 17 17 16 16 16 16 15 15 15 15 15 14 14 14 14 14 14 14 14 14 14 13 13 13 13 13 13 13 13 13 13 13 13 13 13 13
16 16 17 17 16 16 16 16 16 16 16 15 15 15 15 15 14 14 14 14 14 14 14 14 14 14 13 13 13 13 13 13 13 13 13 13 13 13 13 13 13 13 13 12
16 16 16 16 16 16 16 15 15 15 15 15 14 14 14 14 14 14 14 14 14 14 13 13 13 13 13 13 12 12 12 12 12 12 12 12 12 12 13 12 12 12 12 12
15 15 15 15 15 15 15 15 15 15 14 14 14 14 14 14 14 14 13 13 13 13 13 13 13 12 12 12 12 12 12 12 12 12 12 12 12 12 12 12 12 12 12 12
15 15 15 15 15 15 15 15 14 14 14 14 13 13 13 13 13 13 13 13 13 13 13 12 12 12 12 12 12 12 12 12 12 12 12 12 12 12 12 12 12 12 11 11
14 15 15 14 14 14 14 14 14 13 13 13 13 13 13 13 13 12 12 12 12 12 12 12 12 12 12 12 11 11 11 11 11 11 11 11 11 11 11 12 11 11 11 11
14 14 14 14 14 14 13 13 13 13 13 13 13 13 12 12 12 12 12 12 12 12 12 12 12 11 11 11 11 11 11 11 11 11 11 11 11 11 11 11 11 11 11 11
14 13 13 13 13 13 13 13 13 13 12 12 12 12 12 12 11 11 11 11 11 11 11 11 11 11 11 11 11 11 11 11 11 11 11 11 11 11 11 11 11 10 10 10
13 13 13 13 13 13 13 12 12 12 12 12 12 12 12 11 11 11 11 11 11 11 11 11 11 11 11 11 11 11 11 11 11 11 10 10 10 10 10 10 10 10 10 10
13 13 13 12 12 12 12 12 12 12 12 12 12 11 11 11 11 11 11 11 11 11 10 10 10 10 10 10 10 10 10 10 10 10 10 10 10 10 10 10 10 10 10 10
12 12 12 12 12 12 12 12 12 11 11 11 11 11 11 11 11 11 11 11 10 10 10 10 10 10 10 10 10 10 10 10 10 10 10 10 10 10 9 9 9 9 9 9
11 11 11 11 11 11 11 11 11 11 11 11 11 11 11 11 11 11 10 10 10 10 10 10 10 10 10 9 9 9 9 9 9 9 9 9 9 9 9 9 9 9 9 9
11 11 11 11 11 11 11 11 11 11 11 11 11 11 11 10 10 10 10 9 10 10 9 9 9 9 9 9 9 9 9 9 9 9 9 9 9 9 9 9 9 9 8 8
11 11 11 11 11 11 11 11 11 11 11 11 11 11 10 10 10 10 9 9 9 9 9 9 9 9 9 9 9 9 9 9 8 8 8 8 9 9 9 9 9 8 8 8
11 11 11 11 11 11 11 11 11 11 11 11 10 10 10 10 10 10 9 9 9 9 9 9 9 9 9 9 9 8 8 8 8 8 8 8 8 8 8 8 8 8 8 8
Wind_Speed
12 9 9 12 12 12 13 13 13 12 11 8 4 4 3 3 4 4 4 4 4 4 4 5 6 6 6 6 6 6 6 6 5 5 5 5 5 4 4 5 5 4 5 5
12 11 11 12 13 13 14 13 13 12 11 5 3 3 3 3 4 5 5 5 5 5 5 5 5 6 6 6 6 6 6 5 5 5 4 4 4 4 4 4 4 4 5 5
12 10 11 14 13 13 12 11 12 12 8 3 4 3 4 4 5 5 5 5 5 5 5 4 5 6 6 6 6 6 6 5 5 5 4 4 4 4 4 4 4 4 5 5
10 9 14 7 3 7 9 9 8 8 5 4 4 3 3 3 3 4 4 5 5 4 4 4 4 4 5 6 6 6 6 5 5 5 5 4 4 3 4 4 4 4 4 4
10 13 14 8 4 5 8 9 6 6 5 3 2 4 3 1 2 3 3 3 3 3 3 3 3 4 5 6 6 6 6 5 5 5 5 5 4 4 3 3 3 4 4 4
11 12 13 5 2 2 6 9 2 3 4 4 4 6 1 1 2 2 2 2 3 3 3 3 3 4 5 6 5 5 5 5 5 5 5 5 4 4 4 4 4 4 4 4
13 13 10 1 0 4 8 3 2 3 4 4 5 5 3 2 2 1 1 1 2 3 3 2 3 4 5 5 5 5 4 5 5 5 5 5 4 4 4 4 4 4 4 4
10 12 7 3 1 3 3 4 4 5 4 4 3 3 2 1 1 1 1 1 2 2 2 2 3 4 5 5 4 4 4 4 5 5 5 4 4 4 4 4 5 5 4 5
5 3 2 2 3 4 4 5 5 5 4 3 3 3 3 2 2 1 1 1 2 2 2 2 3 4 4 4 4 4 4 4 4 4 5 5 5 5 5 5 5 4 4 5
5 4 4 4 4 4 5 5 5 5 4 4 4 4 3 2 2 2 2 2 2 3 2 2 3 3 3 3 3 4 4 4 4 4 5 5 5 6 5 5 5 5 5 5
8 6 5 5 5 6 6 5 4 4 3 3 3 3 2 2 2 2 2 2 2 2 2 2 2 2 2 3 3 4 4 4 4 4 4 4 5 4 5 4 4 5 5 5
7 5 6 7 7 7 6 5 4 3 3 3 3 3 2 2 2 2 2 2 2 2 2 2 2 2 2 2 3 3 4 4 4 4 4 4 4 4 3 4 4 5 6 5
7 7 7 7 7 5 4 4 4 3 3 2 2 2 2 2 2 1 1 1 2 2 2 2 2 2 2 3 3 3 4 4 4 4 4 4 5 5 4 4 5 7 7 6
6 6 7 6 5 5 4 3 3 2 1 2 2 2 2 2 1 1 1 2 2 1 2 2 3 3 3 3 4 4 4 3 4 4 4 4 5 5 5 5 4 4 5 8
6 6 6 5 4 3 2 2 1 1 1 1 1 2 2 2 1 1 1 1 1 1 2 3 3 3 3 3 3 4 4 3 3 4 4 4 4 5 5 5 4 4 4 3
4 4 4 3 3 2 2 2 1 1 1 0 0 1 1 2 2 1 1 1 1 2 2 2 2 2 2 2 3 3 3 3 4 4 5 4 4 4 4 4 4 4 3 3
3 2 2 2 2 2 1 1 1 1 1 0 1 1 1 1 1 1 1 2 2 2 2 2 2 2 2 3 3 4 3 3 4 5 4 4 4 4 4 3 3 3 3 1
3 2 2 1 1 1 2 1 1 1 0 0 1 1 1 1 2 2 2 2 2 2 2 3 2 3 3 3 3 3 3 4 4 4 4 4 4 4 4 3 3 3 3 1
2 1 1 1 1 1 1 1 1 1 0 1 1 1 1 2 2 2 2 2 2 3 3 3 2 3 3 3 3 4 4 5 4 4 4 3 4 3 3 3 3 3 3 2
1 1 2 1 1 1 1 1 1 1 1 0 0 0 1 2 2 2 2 2 2 2 2 3 3 4 4 3 4 4 4 4 4 4 4 4 3 3 3 3 3 2 2 2
1 1 1 1 1 2 2 1 1 2 2 1 1 1 1 2 2 2 2 2 2 2 2 2 2 3 3 3 4 4 3 3 3 3 3 3 3 3 2 2 2 1 1 1
1 1 1 1 1 2 2 2 1 1 2 2 2 2 2 2 2 2 1 2 1 2 2 2 2 4 4 4 3 2 2 2 2 2 2 2 2 2 2 2 2 1 1 1
2 1 1 1 2 2 2 2 2 1 1 2 2 2 2 3 3 2 2 1 1 1 2 2 4 5 5 2 1 1 1 2 2 2 2 2 1 2 2 2 2 1 1 1
2 2 2 2 2 2 2 2 2 1 0 1 1 1 2 2 2 2 1 1 1 1 1 2 3 2 3 1 1 1 1 2 2 3 2 2 2 2 2 2 2 2 2 2
1 2 2 2 2 2 1 1 1 1 0 0 1 1 1 1 1 1 1 0 1 1 1 1 2 2 2 2 2 2 2 2 2 3 3 2 2 2 2 2 2 2 2 2
1 1 2 2 2 2 2 1 1 1 1 1 1 1 1 1 1 1 0 0 1 1 1 1 1 2 2 2 2 3 3 2 1 2 2 2 2 2 2 2 2 2 2 2
1 1 1 1 1 2 2 2 2 2 2 2 2 2 2 1 1 1 1 1 1 1 1 1 1 1 1 2 2 3 3 2 2 2 2 2 2 2 2 2 2 2 2 2
Wind_Direction
255 255 251 245 240 236 240 253 263 267 266 273 270 263 255 225 206 201 195 200 189 181 181 184 183 180 182 183 183 185 187 193 198 201 203 207 211 216 222 231 237 241 247 250
246 245 246 249 243 240 243 247 254 262 266 279 270 262 248 234 219 215 210 206 194 183 183 189 187 185 184 188 187 185 188 191 192 197 200 205 210 216 224 233 238 240 245 248
247 241 247 245 239 237 239 243 252 258 272 291 273 272 262 252 232 224 220 211 200 190 190 192 193 188 185 186 185 182 183 185 190 193 198 208 218 219 228 236 240 243 248 251
249 240 244 251 241 242 245 249 254 263 280 283 287 274 265 256 241 225 217 210 205 200 189 188 195 192 185 180 184 187 189 193 197 202 206 208 214 224 238 247 250 249 249 253
242 243 249 237 217 227 240 244 244 253 264 269 265 245 232 210 249 239 227 221 215 210 196 183 185 185 182 184 187 194 195 197 202 209 213 213 220 229 238 242 244 248 247 250
237 247 253 245 151 233 245 238 225 266 267 254 240 257 271 18 294 267 248 223 204 188 174 172 177 188 189 188 192 200 205 205 206 209 213 216 223 232 238 240 242 247 247 247
238 244 249 12 80 212 235 246 17 325 292 262 255 297 328 322 303 275 240 206 183 173 172 171 182 191 197 191 201 209 213 211 210 209 212 217 224 229 235 236 239 247 249 247
236 243 242 73 193 247 322 356 329 316 296 276 277 300 291 284 271 256 231 199 189 180 179 182 197 200 198 195 203 205 210 214 216 219 224 216 222 231 233 237 235 239 247 254
252 262 13 321 301 320 314 303 302 300 295 272 258 265 264 258 241 240 234 214 204 196 196 207 218 215 204 201 201 200 206 216 222 223 228 230 229 232 234 235 246 253 258 263
259 262 291 285 295 306 305 303 297 289 277 257 253 261 263 252 238 236 226 215 213 209 205 218 228 224 208 205 200 200 209 218 229 232 232 232 240 238 243 245 251 258 264 269
256 268 280 270 292 306 308 307 297 281 267 259 247 247 246 251 254 253 250 244 238 235 233 233 225 216 213 199 199 210 219 227 237 242 245 247 247 259 257 258 260 263 272 274
259 274 282 286 293 296 297 306 306 283 263 251 236 221 216 228 250 249 250 265 264 255 243 236 221 212 221 213 210 222 232 242 250 252 249 251 250 252 243 246 227 227 251 266
275 283 284 284 287 287 287 299 305 293 269 244 229 209 196 206 228 240 241 255 262 265 260 251 237 238 238 235 227 234 248 257 263 263 256 257 260 260 267 251 216 217 220 225
275 275 273 275 279 279 279 288 296 294 253 212 203 197 195 197 205 223 237 246 259 268 275 267 262 258 247 238 236 240 250 254 263 265 266 267 267 267 266 273 274 266 220 208
278 270 270 275 272 266 254 243 231 222 210 205 203 205 210 217 219 217 224 236 238 232 251 260 263 265 258 248 243 249 255 260 264 269 265 266 269 272 274 274 275 280 282 227
305 286 266 255 248 240 213 197 192 171 154 150 199 225 231 234 232 238 236 216 224 242 256 261 263 265 251 248 251 254 258 265 270 270 266 262 263 269 274 280 282 278 276 279
286 280 263 249 209 174 151 130 123 120 123 177 258 255 240 240 270 268 268 270 265 261 260 270 281 279 261 251 254 260 265 254 240 258 265 269 271 272 272 272 277 281 285 308
291 294 302 306 140 130 116 105 101 97 86 245 243 256 261 256 255 252 262 277 280 279 286 295 296 282 267 261 262 263 256 253 249 255 263 267 271 272 275 277 278 284 292 261
325 337 2 37 94 103 96 57 9 1 312 221 217 243 262 263 258 260 274 276 274 276 291 308 305 283 280 277 268 248 250 250 253 260 263 259 260 268 273 275 281 289 294 298
39 38 34 35 33 43 39 25 7 359 355 326 163 271 282 285 279 272 267 274 292 312 320 320 295 287 285 281 268 256 251 253 253 257 257 258 259 266 270 270 272 280 283 280
45 53 56 37 11 4 357 344 345 352 353 350 305 292 299 305 295 277 271 284 323 347 338 317 295 301 300 299 259 265 261 261 264 264 262 258 255 254 258 266 274 279 286 294
4 36 36 4 357 357 347 342 354 5 5 1 343 339 331 319 311 302 288 297 321 339 311 312 325 356 338 295 259 266 274 279 279 281 271 264 266 272 271 273 271 269 270 275
17 27 25 10 0 358 353 2 7 13 2 329 324 322 319 321 318 310 302 307 286 331 314 350 24 25 344 298 270 272 285 290 295 290 276 269 280 286 274 267 269 272 268 275
34 39 42 38 33 27 13 6 14 24 3 309 319 323 316 312 313 307 329 79 42 354 317 54 57 14 299 311 335 327 313 311 307 300 292 290 284 277 274 268 261 256 263 279
28 30 32 21 13 14 17 9 25 35 330 8 356 330 317 323 321 321 333 12 115 230 288 134 174 238 271 308 316 325 314 313 309 306 298 295 292 291 283 274 267 268 272 278
348 354 350 345 344 326 319 327 334 333 331 340 351 346 8 36 14 352 303 269 213 229 283 299 250 231 280 307 320 316 312 309 276 271 283 287 291 296 293 295 296 288 288 290
307 308 295 308 310 314 328 339 336 328 329 326 325 341 345 340 328 337 325 296 280 262 273 285 294 303 318 320 314 314 312 311 312 311 303 303 312 312 309 305 304 303 295 282
Height
1478 1476 1478 1479 1481 1482 1484 1482 1484 1480 1478 1476 1480 1484 1487 1490 1492 1493 1494 1495 1496 1498 1500 1501 1503 1504 1505 1507 1508 1509 1510 1511 1512 1512 1513 1513 1513 1513 1513 1513 1513 1513 1512 1512
1482 1476 1477 1479 1477 1478 1479 1479 1478 1478 1477 1475 1481 1484 1487 1488 1490 1491 1492 1493 1495 1496 1497 1499 1500 1501 1503 1504 1505 1506 1508 1509 1509 1509 1510 1510 1510 1510 1510 1510 1510 1510 1509 1508
1482 1476 1479 1482 1473 1473 1475 1474 1475 1477 1475 1477 1480 1484 1486 1487 1488 1489 1490 1492 1493 1494 1495 1496 1498 1499 1500 1501 1503 1504 1505 1505 1506 1507 1507 1507 1508 1507 1507 1507 1506 1506 1506 1505
1481 1485 1494 1473 1468 1469 1472 1472 1473 1474 1476 1479 1481 1484 1486 1486 1487 1487 1489 1490 1491 1492 1493 1494 1495 1497 1498 1499 1500 1501 1502 1502 1503 1504 1504 1504 1504 1504 1504 1503 1503 1503 1503 1502
1481 1483 1477 1470 1470 1472 1474 1474 1474 1475 1477 1479 1481 1482 1483 1485 1486 1487 1487 1488 1489 1490 1491 1492 1493 1494 1495 1496 1497 1498 1499 1499 1500 1501 1501 1501 1501 1501 1500 1500 1500 1500 1499 1499
1481 1486 1483 1469 1469 1473 1475 1476 1475 1476 1477 1479 1480 1477 1479 1484 1485 1485 1486 1486 1487 1488 1489 1490 1490 1492 1493 1493 1494 1495 1496 1496 1497 1498 1498 1498 1498 1498 1497 1497 1497 1497 1496 1496
1479 1480 1470 1470 1472 1475 1480 1476 1477 1477 1478 1479 1480 1480 1482 1483 1484 1484 1484 1484 1485 1485 1486 1487 1488 1489 1490 1490 1491 1492 1493 1494 1494 1495 1495 1495 1495 1495 1494 1494 1494 1494 1493 1493
1477 1480 1477 1474 1474 1475 1476 1477 1477 1478 1478 1479 1480 1481 1481 1481 1482 1482 1482 1483 1483 1483 1484 1484 1485 1486 1486 1487 1488 1489 1489 1491 1491 1492 1492 1493 1492 1492 1492 1491 1491 1491 1490 1490
1475 1476 1477 1477 1477 1478 1479 1478 1477 1477 1477 1478 1479 1480 1480 1480 1480 1480 1480 1480 1481 1482 1482 1482 1483 1483 1483 1484 1485 1485 1486 1487 1488 1488 1489 1489 1489 1489 1489 1488 1488 1488 1488 1487
1477 1474 1477 1478 1478 1478 1478 1477 1476 1476 1476 1476 1477 1478 1478 1478 1478 1478 1478 1478 1479 1480 1480 1480 1480 1481 1481 1481 1482 1482 1483 1484 1485 1485 1485 1485 1485 1486 1486 1485 1485 1484 1484 1483
1477 1476 1477 1476 1477 1477 1476 1475 1474 1474 1474 1475 1475 1475 1476 1476 1476 1476 1476 1476 1477 1477 1477 1478 1478 1478 1479 1479 1479 1480 1480 1480 1481 1482 1482 1482 1482 1482 1481 1481 1480 1480 1480 1479
1473 1475 1476 1475 1475 1475 1474 1473 1472 1472 1472 1473 1473 1473 1474 1474 1474 1474 1474 1474 1474 1475 1475 1475 1476 1476 1476 1477 1477 1477 1477 1478 1478 1479 1479 1479 1478 1478 1477 1477 1476 1475 1474 1474
1475 1475 1474 1474 1473 1473 1473 1472 1471 1471 1471 1471 1471 1471 1471 1472 1472 1472 1472 1472 1472 1472 1473 1473 1473 1474 1474 1474 1474 1474 1474 1475 1476 1476 1476 1475 1475 1475 1473 1473 1471 1471 1470 1470
1473 1473 1471 1471 1471 1470 1470 1470 1470 1469 1469 1469 1469 1469 1469 1470 1470 1469 1469 1469 1470 1470 1471 1471 1471 1471 1471 1471 1471 1471 1471 1472 1472 1472 1472 1472 1472 1471 1470 1469 1468 1467 1467 1466
1470 1469 1469 1468 1468 1467 1467 1467 1467 1467 1467 1467 1467 1467 1467 1467 1467 1467 1468 1467 1468 1468 1469 1469 1469 1469 1468 1468 1468 1468 1468 1468 1468 1468 1469 1469 1468 1468 1467 1466 1465 1464 1464 1463
1467 1466 1466 1466 1465 1465 1465 1465 1465 1465 1465 1466 1466 1466 1465 1465 1466 1465 1465 1465 1465 1465 1466 1466 1466 1466 1465 1465 1465 1465 1465 1465 1465 1465 1466 1465 1465 1464 1464 1463 1462 1462 1461 1460
1466 1465 1465 1464 1464 1464 1464 1464 1464 1464 1464 1464 1464 1464 1463 1463 1463 1463 1464 1464 1464 1463 1463 1463 1463 1463 1462 1462 1462 1462 1462 1462 1462 1462 1463 1462 1461 1461 1460 1460 1460 1459 1458 1457
1465 1465 1465 1464 1464 1463 1464 1464 1464 1463 1463 1462 1462 1462 1462 1461 1461 1462 1462 1462 1462 1461 1461 1461 1461 1460 1460 1459 1459 1459 1459 1459 1459 1459 1459 1459 1458 1458 1458 1457 1457 1456 1456 1455
1465 1464 1464 1464 1464 1464 1463 1463 1463 1462 1462 1461 1461 1461 1460 1460 1460 1460 1460 1459 1459 1459 1459 1458 1458 1457 1457 1456 1456 1456 1456 1456 1456 1456 1456 1456 1455 1455 1455 1455 1454 1454 1453 1453
1465 1464 1464 1464 1464 1464 1463 1463 1462 1461 1460 1460 1460 1460 1459 1459 1458 1458 1458 1458 1458 1457 1456 1455 1455 1454 1454 1453 1453 1453 1454 1454 1453 1453 1453 1453 1453 1452 1452 1452 1452 1452 1451 1451
1465 1464 1464 1463 1463 1463 1463 1462 1462 1460 1460 1460 1459 1459 1458 1457 1457 1457 1456 1456 1456 1454 1453 1453 1452 1451 1450 1450 1450 1450 1450 1451 1451 1451 1451 1451 1450 1450 1450 1450 1450 1449 1449 1449
1464 1464 1464 1463 1463 1462 1462 1461 1461 1460 1459 1459 1458 1458 1457 1456 1456 1455 1455 1455 1454 1453 1452 1451 1450 1448 1447 1446 1447 1447 1448 1448 1448 1448 1448 1448 1448 1448 1448 1447 1447 1447 1447 1447
1464 1463 1463 1463 1462 1462 1461 1461 1460 1459 1459 1458 1458 1457 1456 1456 1455 1454 1454 1454 1453 1451 1450 1449 1448 1446 1445 1444 1445 1445 1446 1446 1447 1446 1446 1446 1446 1446 1446 1445 1445 1445 1445 1445
1464 1463 1463 1462 1462 1461 1461 1460 1459 1459 1458 1458 1457 1457 1456 1455 1454 1454 1453 1452 1450 1449 1448 1448 1447 1446 1445 1444 1444 1444 1444 1444 1445 1445 1445 1444 1444 1444 1444 1444 1443 1443 1443 1442
1464 1463 1463 1462 1462 1461 1460 1459 1459 1459 1458 1458 1457 1456 1456 1455 1454 1453 1452 1451 1449 1448 1448 1447 1446 1446 1445 1444 1444 1444 1444 1444 1444 1443 1443 1443 1442 1442 1442 1442 1441 1441 1440 1440
1464 1463 1463 1462 1461 1461 1460 1459 1459 1458 1458 1457 1457 1456 1455 1454 1453 1452 1451 1450 1449 1448 1448 1447 1446 1446 1445 1445 1444 1444 1443 1443 1443 1442 1442 1441 1441 1440 1440 1440 1440 1439 1438 1438
1463 1462 1462 1462 1461 1460 1460 1459 1458 1458 1457 1456 1456 1455 1455 1454 1453 1452 1451 1450 1449 1448 1448 1447 1446 1445 1445 1444 1444 1444 1443 1442 1442 1441 1440 1440 1439 1439 1439 1438 1438 1437 1436 1435